Regional Weather Roundup
Issued by NWS Northern Indiana

Home | Current Version | Previous Version | Text Only | Print | Product List | Glossary Off
Versions: 1 2 3 4 5 6 7 8 9 10 11 12 13 14 15 16 17 18 19 20 21 22 23 24 25 26 27 28 29 30 31 32 33 34 35 36 37 38 39 40 41 42 43 44 45 46 47 48 49 50

000
ASUS43 KIWX 251410
RWRIWX

KIWX WEATHER ROUNDUP
NATIONAL WEATHER SERVICE NORTHERN INDIANA
1000 AM EDT SAT MAR 25 2017

NOTE: "FAIR" INDICATES FEW OR NO CLOUDS BELOW 12,000 FEET WITH NO
SIGNIFICANT WEATHER AND/OR OBSTRUCTIONS TO VISIBILITY.

* THESE STATIONS ARE NOT UNDER NWS QUALITY CONTROL. THEY ALSO MAY NOT
  REPORT WEATHER SUCH AS PRECIPITATION OR FOG.

INZ001>027-251500-
NORTHERN INDIANA

CITY           SKY/WX    TMP DP  RH WIND       PRES   REMARKS
GARY*          LGT RAIN  41  41 100 N6        30.04F FOG
VALPARAISO     CLOUDY    50  50 100 E8        30.03F FOG
MICHIGAN CITY* RAIN      46  46 100 CALM      30.05F
LAPORTE*       LGT RAIN  49  49  99 E12       30.05F
KNOX*          CLOUDY    48  41  76 E10       30.04F
SOUTH BEND     HVY RAIN  48  47  96 NE9       30.07S FOG
ELKHART*       LGT RAIN  48  46  93 E7        30.08S
GOSHEN         CLOUDY    52  46  80 E8        30.08R
MONTICELLO*    PTSUNNY   59  52  78 E3        30.00S
LOGANSPORT*    CLOUDY    61  54  77 SE6       30.03S
ROCHESTER*     CLOUDY    61  55  82 E3        30.05R
WARSAW*        CLOUDY    55  52  88 E6        30.06R
ANGOLA*        CLOUDY    48  46  93 E7        30.10S
FORT WAYNE     CLOUDY    61  53  75 E6        30.08R
HUNTINGTON*    CLOUDY    61  52  71 CALM      30.06R
PERU/GRISSOM   CLOUDY    63  55  76 S13       30.01S
MARION*        CLOUDY    63  51  64 S17       30.06R

$$
INZ028>050-251500-
CENTRAL INDIANA

CITY           SKY/WX    TMP DP  RH WIND       PRES   REMARKS
LAFAYETTE      CLOUDY    64  53  67 SE15G21   29.98S
KOKOMO*        CLOUDY    62  53  72 S15       30.04S
MUNCIE*        CLOUDY    66  50  56 S16G24    30.07R
INDIANAPOLIS   CLOUDY    65  52  62 S14       30.04R

$$
MIZ043>046-050>051-056>058-064>065-071>073-077>080-251500-
SOUTHWEST LOWER MICHIGAN

CITY           SKY/WX    TMP DP  RH WIND       PRES   REMARKS
BATTLE CREEK   LGT RAIN  41  40  96 NE10      30.15R FOG
BENTON HARBOR  RAIN      48  45  89 E9        30.08S FOG
COLDWATER*     CLOUDY    48  43  83 E10       30.12R
HILLSDALE*     CLOUDY    45  41  87 E9        30.13R
HOLLAND        CLOUDY    40  36  86 NE17G24   30.13R
GRAND RAPIDS   LGT RAIN  37  35  92 E13       30.18R
KALAMAZOO      RAIN      43  40  89 E6        30.14R FOG
STURGIS*       CLOUDY    48  45  87 E9        30.10R
THREE RIVERS*  RAIN      46  44  95 E9        30.10F

$$
OHZ001>008-015>018-024>025-251500-
NORTHWEST OHIO

CITY           SKY/WX    TMP DP  RH WIND       PRES   REMARKS
WAUSEON*       CLOUDY    48  43  81 NE16      30.14S
DEFIANCE       CLOUDY    49  42  77 NE10      30.12R
FINDLAY        CLOUDY    64  51  62 SW3       30.11R
TOLEDO EXPRESS CLOUDY    45  41  86 NE10      30.15R
TOLEDO METCALF PTSUNNY   44  41  89 NE10      30.17R FOG
LIMA           PTSUNNY   63  51  65 S15       30.10S

$$
AND FOR LAKE MICHIGAN COASTAL AND OPEN LAKE BUOY OBSERVATIONS

STATION/POSITION TEMP    WIND        PRES    VSBY  WAVE
                 AIR SEA DIR/SP/G                  HT/PER
                 (F)     (DEG/KT/KT) (MB)    (MI)  (FT/S)
CALUMET HARBOR           360/  9/ 12 1016.8R
MICHIGAN CITY     39      40/  6/  6   N/A
BURNS HARBOR      40      50/  7/  8 1017.6F

$$
&&




USA.gov is the U.S. government's official web portal to all federal, state and local government web resources and services.